This demonstration page uses our WeatherBlox Daily Observations layout. Learn more.

Left ArrowRight Arrow

36.17497, -115.13722

Hourly Observations for December 2, 2019

Temp ( °F °C ) Dew Point ( °F °C ) Humidity (%) Winds ( mph kmh ) Pressure ( in mb ) Visibility ( mi km ) Precip ( " mm )
12:53 am 00:53 Clear 39 3.9 30 -1.1 70 70 NW 5 7 30.29 1026 10 16 0.00 0.00
1:53 am 01:53 Clear 39 3.9 29 -1.7 67 67 WNW 8 13 30.29 1026 10 16 0.00 0.00
2:53 am 02:53 Clear 40 4.4 29 -1.7 65 65 NW 6 9 30.29 1026 10 16 0.00 0.00
3:53 am 03:53 Clear 39 3.9 29 -1.7 67 67 WNW 6 9 30.29 1026 10 16 0.00 0.00
4:53 am 04:53 Clear 40 4.4 28 -2.2 63 63 NNW 9 15 30.29 1026 10 16 0.00 0.00
5:53 am 05:53 Clear 41 5 27 -2.8 57 57 NW 9 15 30.30 1026 10 16 0.00 0.00
6:53 am 06:53 Sunny 40 4.4 29 -1.7 65 65 W 3 6 30.31 1026 10 16 0.00 0.00
7:53 am 07:53 Mostly Sunny 40 4.4 30 -1.1 68 68 Calm 30.33 1027 10 16 0.00 0.00
8:53 am 08:53 Sunny 46 7.8 29 -1.7 51 51 NW 7 11 30.34 1027 10 16 0.00 0.00
9:53 am 09:53 Sunny 50 10 28 -2.2 43 43 Calm 30.33 1027 10 16 0.00 0.00
10:53 am 10:53 Sunny 51 10.6 27 -2.8 39 39 Calm 30.31 1027 10 16 0.00 0.00
11:53 am 11:53 Sunny 52 11.1 27 -2.8 38 38 SE 5 7 30.29 1026 10 16 0.00 0.00
12:53 pm 12:53 Sunny 54 12.2 26 -3.3 34 34 Calm 30.26 1025 10 16 0.00 0.00
1:53 pm 13:53 Sunny 55 12.8 28 -2.2 35 35 S 5 7 30.24 1024 10 16 0.00 0.00
2:53 pm 14:53 Sunny 55 12.8 28 -2.2 35 35 Calm 30.22 1024 10 16 0.00 0.00
3:53 pm 15:53 Sunny 55 12.8 28 -2.2 35 35 Calm 30.23 1024 10 16 0.00 0.00
4:53 pm 16:53 Clear 54 12.2 29 -1.7 38 38 S 5 7 30.25 1024 10 16 0.00 0.00
5:53 pm 17:53 Clear 51 10.6 31 -0.6 46 46 Calm 30.26 1025 10 16 0.00 0.00
6:53 pm 18:53 Clear 50 10 31 -0.6 48 48 Calm 30.27 1025 10 16 0.00 0.00
7:53 pm 19:53 Clear 47 8.3 34 1.1 61 61 WNW 5 7 30.29 1026 10 16 0.00 0.00
8:53 pm 20:53 Clear 47 8.3 35 1.7 63 63 WNW 3 6 30.28 1026 10 16 0.00 0.00
9:53 pm 21:53 Clear 46 7.8 34 1.1 63 63 WNW 5 7 30.27 1025 10 16 0.00 0.00
10:53 pm 22:53 Clear 45 7.2 34 1.1 66 66 NW 6 9 30.26 1025 10 16 0.00 0.00
11:53 pm 23:53 Clear 45 7.2 34 1.1 66 66 WNW 3 6 30.26 1025 10 16 0.00 0.00

Powered by AerisWeather